TimeMDT,TemperatureF,Dew PointF,Humidity,Sea Level PressureIn,VisibilityMPH,Wind Direction,Wind SpeedMPH,Gust SpeedMPH,PrecipitationIn,Events,Conditions,WindDirDegrees,DateUTC
12:48 AM,46.9,35.1,63,29.95,-9999.0,Calm,Calm,-,N/A,,Unknown,0,2011-10-15 06:48:00
1:48 AM,46.0,39.0,76,29.95,-9999.0,Calm,Calm,-,N/A,,Unknown,0,2011-10-15 07:48:00
2:48 AM,46.0,37.0,71,29.94,-9999.0,Calm,Calm,-,N/A,,Unknown,0,2011-10-15 08:48:00
3:48 AM,44.1,39.9,85,29.93,-9999.0,Calm,Calm,-,N/A,,Unknown,0,2011-10-15 09:48:00
4:48 AM,45.0,39.9,82,29.92,-9999.0,Calm,Calm,-,N/A,,Unknown,0,2011-10-15 10:48:00
5:48 AM,45.0,39.0,80,29.90,-9999.0,East,3.5,-,N/A,,Unknown,100,2011-10-15 11:48:00
6:48 AM,44.1,37.9,79,29.89,-9999.0,East,3.5,-,N/A,,Unknown,80,2011-10-15 12:48:00
7:48 AM,44.1,39.9,85,29.91,-9999.0,North,4.6,-,0.01,,Unknown,360,2011-10-15 13:48:00
8:48 AM,44.1,39.9,85,29.93,-9999.0,North,6.9,-,0.03,,Unknown,10,2011-10-15 14:48:00
9:48 AM,43.0,41.0,93,29.96,-9999.0,Calm,Calm,-,0.08,,Unknown,0,2011-10-15 15:48:00
10:48 AM,45.0,41.0,86,29.96,-9999.0,North,4.6,-,0.02,,Unknown,360,2011-10-15 16:48:00
11:48 AM,46.0,39.0,76,29.97,-9999.0,West,8.1,-,N/A,,Unknown,280,2011-10-15 17:48:00
12:48 PM,46.9,39.9,77,29.98,-9999.0,WNW,11.5,-,N/A,,Unknown,290,2011-10-15 18:48:00
1:48 PM,48.0,39.9,74,29.97,-9999.0,NW,13.8,20.7,N/A,,Unknown,310,2011-10-15 19:48:00
2:48 PM,50.0,37.9,63,29.98,-9999.0,NNW,16.1,-,N/A,,Unknown,330,2011-10-15 20:48:00
3:48 PM,52.0,37.9,59,29.98,-9999.0,WNW,13.8,-,N/A,,Unknown,290,2011-10-15 21:48:00
4:48 PM,52.0,37.9,59,29.99,-9999.0,West,11.5,-,N/A,,Unknown,280,2011-10-15 22:48:00
5:48 PM,50.0,36.0,59,30.00,-9999.0,West,10.4,-,N/A,,Unknown,280,2011-10-15 23:48:00
6:48 PM,43.0,37.0,80,30.03,-9999.0,WNW,6.9,-,N/A,,Unknown,300,2011-10-16 00:48:00
7:48 PM,41.0,36.0,82,30.06,-9999.0,WNW,9.2,-,N/A,,Unknown,300,2011-10-16 01:48:00
8:48 PM,41.0,35.1,79,30.08,-9999.0,WNW,10.4,-,N/A,,Unknown,300,2011-10-16 02:48:00
9:48 PM,41.0,30.0,65,30.12,-9999.0,NNW,10.4,-,N/A,,Unknown,340,2011-10-16 03:48:00
10:48 PM,39.9,28.9,65,30.14,-9999.0,NNW,11.5,-,N/A,,Unknown,330,2011-10-16 04:48:00
11:48 PM,39.9,28.0,63,30.15,-9999.0,NNW,9.2,-,N/A,,Unknown,330,2011-10-16 05:48:00